Regional Weather Roundup
Issued by NWS

Home | Current Version | Previous Version | Text Only | Print | Product List | Glossary On
Versions: 1 2 3 4 5 6 7 8 9 10 11 12 13 14 15 16 17 18 19 20 21 22 23 24 25 26 27 28 29 30 31 32 33 34 35 36 37 38 39 40 41 42 43 44 45 46 47 48 49 50
000
ASUS44 KLIX 011310
RWRLA
LOUISIANA WEATHER ROUNDUP
NATIONAL WEATHER SERVICE NEW ORLEANS LA
700 AM CST SUN FEB 01 2015

NOTE: "FAIR" INDICATES FEW OR NO CLOUDS BELOW 12,000 FEET WITH NO
      SIGNIFICANT WEATHER AND/OR OBSTRUCTIONS TO VISIBILITY.
      SKY/WX - SKY CONDITION AND SIGNIFICANT WEATHER.
      TMP - AIR TEMPERATURE.    DP   - DEWPOINT TEMPERATURE.
      RH  - RELATIVE HUMIDITY.  PRES - PRESSURE.
      HX  - HEAT INDEX.         WCI  - WIND CHILL INDEX.

*  THESE STATIONS ARE NOT NWS OR FAA STATIONS AND ARE NOT UNDER
   NWS QUALITY CONTROL.

LAZ040-048-061>063-065-066-069-011400-
SOUTHEAST LOUISIANA

CITY           SKY/WX    TMP DP  RH WIND       PRES   REMARKS
N.O. AUDUBON   NOT AVBL
N.O. INTL ARPT CLOUDY    60  57  89 SE10      30.00F
N.O. LAKEFRONT CLOUDY    62  57  83 SE10      30.03F
N.O. DOWNTOWN* NOT AVBL
SLIDELL        LGT RAIN  59  57  93 SE5       30.03S FOG
BATON ROUGE    CLOUDY    58  56  93 E5        29.99S
BOOTHVILLE     MOCLDY    63  57  81 SE8       30.03S
BELLE CHASSE   LGT RAIN  60  56  86 CALM      30.03R
BOGALUSA*        N/A     57  53  88 CALM      30.03F
GALLIANO*      RAIN      59  58  96 MISG      30.02F
NEW ROADS*     PTSUNNY   58  56  91 SE5       29.99R
GONZALES*      PTSUNNY   60  60 100 CALM      29.99S
HAMMOND*       CLOUDY    57  54  88 SE3       30.02R
HOUMA*         MOCLDY    61  61 100 E7        29.99F
PORT FOURCHON* CLOUDY    66  63  88 VRB6G12   30.05S FOG

$$

LAZ041-044-053-054-011400-
SOUTHWEST LOUISIANA

CITY           SKY/WX    TMP DP  RH WIND       PRES   REMARKS
LAKE CHARLES   MOCLDY    54  53  97 CALM      29.96S FOG
LAFAYETTE      MOCLDY    60  59  96 S5        29.98R
PATTERSON      CLOUDY    61  57  88 SE6       29.98F
SALT POINT       N/A     61  60  97 SE6       29.97S
NEW IBERIA     CLOUDY    61  59  93 CALM      29.99R
CHENAULT AIRPK CLOUDY    55  55 100 CALM      29.97S FOG

$$

LAZ027-028-011400-
CENTRAL LOUISIANA

CITY           SKY/WX    TMP DP  RH WIND       PRES   REMARKS
FORT POLK      CLOUDY    57  55  94 SE6       29.95S
ALEXANDRIA INT CLOUDY    55  52  89 SE5       29.95S
ALEXANDRIA     CLOUDY    56  52  86 CALM      29.97R

$$

LAZ001-002-011400-
NORTHWEST LOUISIANA

CITY           SKY/WX    TMP DP  RH WIND       PRES   REMARKS
SHREVEPORT     CLOUDY    57  55  93 S9        29.89S
BARKSDALE AFB  CLOUDY    54  54 100 S9        29.89S
DTN SHREVEPORT CLOUDY    56  53  90 S13       29.89S

$$

LAZ014-016-011400-
NORTHEAST LOUISIANA

CITY           SKY/WX    TMP DP  RH WIND       PRES   REMARKS
MONROE         CLOUDY    54  51  90 S10       29.94F
TALLULAH       CLOUDY    53  50  89 S10       29.97F

$$



USA.gov is the U.S. government's official web portal to all federal, state and local government web resources and services.